Location: Newark
(6.9000°N, 10.0000°E)
Time: 00:04:19
(UTC+00:00)

Envisat - Pass Details

Date: 21 October 2019
Orbit: 764 x 766 km, 98.1° (Epoch: 16 November)

Event Time Altitude Azimuth Distance (km) Brightness Sun altitude
Rises 18:20:58 0° 186° (S) 3,223 6.4 -20.0°
Reaches altitude 10° 18:23:28 10° 195° (SSW) 2,296 5.8 -20.6°
Maximum altitude 18:27:59 33° 259° (WSW) 1,252 4.7 -21.7°
Drops below altitude 10° 18:32:31 10° 323° (NW) 2,293 5.8 -22.8°
Sets 18:35:01 0° 332° (NNW) 3,217 6.5 -23.4°
